Regional Weather Roundup
Issued by NWS Upton, NY

Current Version | Previous Version | Graphics & Text | Print | Product List | Glossary Off
Versions: 1 2 3 4 5 6 7 8 9 10 11 12 13 14 15 16 17 18 19 20 21 22 23 24 25 26 27 28 29 30 31 32 33 34 35 36 37 38 39 40 41 42 43 44 45 46 47 48 49 50

000
ASUS41 KOKX 301805
RWROKX

REGIONAL WEATHER ROUNDUP
NATIONAL WEATHER SERVICE NEW YORK NY
200 PM EDT WED JUL 30 2014

NOTE: "FAIR" INDICATES FEW OR NO CLOUDS BELOW 12,000 FEET WITH NO
SIGNIFICANT WEATHER AND/OR OBSTRUCTIONS TO VISIBILITY.

NYZ071-072-176-178-NJZ106-104-301900-
NEW YORK CITY METRO AREA


CITY           SKY/WX    TMP DP  RH WIND       PRES   REMARKS
CENTRAL PARK   FAIR      79  45  29 NW5       30.03F
LAGUARDIA APRT FAIR      80  43  26 W6        30.00F
KENNEDY INTL   FAIR      77  55  46 S12       30.01F
NEWARK/LIBERTY FAIR      80  47  31 NW10      30.01S
BRNX BOT. GARD   N/A     79  45  29 N5        30.02S
TETERBORO      PTSUNNY   80  47  31 W7        29.99F
$$

NYZ177-179-078>081-301900-
LONG ISLAND NEW YORK

CITY           SKY/WX    TMP DP  RH WIND       PRES   REMARKS
FARMINGDALE    FAIR      76  46  34 VRB3      30.01F
ISLIP          FAIR      79  56  45 S10       29.99F
SHIRLEY        PTSUNNY   77  51  40 W14G21    30.01F
WESTHAMPTON    CLOUDY    74  58  57 E5        30.03R
MONTAUK POINT    N/A     77  57  50 VRB3      30.02F
$$

NYZ052-065-067-301900-
HUDSON VALLEY

CITY           SKY/WX    TMP DP  RH WIND       PRES   REMARKS
WHITE PLAINS   FAIR      76  48  37 W5        30.01F
NEWBURGH       PTSUNNY   73  54  49 CALM      30.03S
MONTGOMERY     CLOUDY    77  52  41 W10G17    30.01S
POUGHKEEPSIE   PTSUNNY   76  50  40 W8        30.00S
ALBANY         FAIR      74  52  46 CALM      30.00F
$$

NJZ001-105-106-008-010-013-015-019>022-104-301900-
NEW JERSEY

CITY           SKY/WX    TMP DP  RH WIND       PRES   REMARKS
NEWARK/LIBERTY FAIR      80  47  31 NW10      30.01S
TETERBORO      PTSUNNY   80  47  31 W7        29.99F
CALDWELL       FAIR      78  48  34 SW7       30.01F
MORRISTOWN     PTSUNNY   77  52  41 NW9G20    30.02F
SOMERVILLE     FAIR      76  50  40 CALM      30.00F
LINDEN         FAIR      80  49  33 NW8       30.03S
SUSSEX         FAIR      77  53  43 SW8       30.02F
ANDOVER          N/A     74  51  44 SW10      30.03F
TRENTON        FAIR      77  50  38 W8        30.02F
MILLVILLE      FAIR      78  51  38 W8        30.04F
ATLANTIC CITY  FAIR      79  52  38 NW7       30.03F
WRIGHTSTOWN    MOSUNNY   77  51  39 VRB6      30.01F
TOMS RIVER     PTSUNNY   79  46  31 W5        30.03F
BELMAR         FAIR      79  52  38 SW8       30.03S
$$

PAZ047>061-062-071-301900-
EASTERN PENNSYLVANIA

CITY           SKY/WX    TMP DP  RH WIND       PRES   REMARKS
PHILADELPHIA   FAIR      78  51  38 S9        30.03F
ALLENTOWN      FAIR      76  51  41 VRB5      30.03F
SCRANTON       PTSUNNY   74  49  41 NW7       30.03F
$$

CTZ002-004>006-009-010-012-RIZ004-006-007-MAZ004-011-015-301900-
SOUTHERN NEW ENGLAND
 IN CT

CITY           SKY/WX    TMP DP  RH WIND       PRES   REMARKS
BRADLEY INTL   PTSUNNY   77  46  33 VRB5      29.99S
HARTFORD       PTSUNNY   77  46  33 W5        29.99S
DANBURY        FAIR      72  47  40 CALM      30.03S
WTRBRY/OXFORD  PTSUNNY   73  52  46 NW6       30.04F
BRIDGEPORT     FAIR      77  57  50 S10       30.01S
MERIDEN        FAIR      78  46  32 VRB6      30.00S
NEW HAVEN      FAIR      76  57  51 S10       30.01S
CHESTER        FAIR      75  48  38 S6        30.01F
GROTON         FAIR      74  60  61 S9        30.00S
WILLIMANTIC    PTSUNNY   78  49  35 W10       30.00F

 IN RI

CITY           SKY/WX    TMP DP  RH WIND       PRES   REMARKS
PROVIDENCE     PTSUNNY   79  48  33 VRB6      30.00S
BLOCK ISLAND   FAIR      75  54  46 SW8       30.02S
WESTERLY       FAIR      76  54  46 S10       30.01F

 IN MA

CITY           SKY/WX    TMP DP  RH WIND       PRES   REMARKS
BOSTON         FAIR      76  50  40 CALM      29.98F
WORCESTER      FAIR      72  48  42 W7        30.02F
WESTFIELD      CLOUDY    76  49  38 SW5       29.99F
PROVINCETOWN   FAIR      79  55  44 SW7       29.99F
NANTUCKET      FAIR      74  60  61 SW9       30.00S
$$

ANZ330-335-338-340-345-350-353-355-301900-
COASTAL MARINE OBSERVATIONS


STATION/POSITION TIME  SKY/WX   TEMP    WIND        PRES    VSBY  WAVE
                                AIR SEA DIR/SP/G                  HT/PER
                 (UTC)          (F)     (DEG/KT/KT) (MB)    (MI)  (FT/S)
NY HARB ENTRANCE NOT AVBL
4S FIRE IS       NOT AVBL
23SW MTP         1800            72 72              1016.0          3/ 8
HUDSON CANYON    1800            72 76  330/  8/ 12 1016.7          3/ 8
EXECUTION ROCKS  1800            76 74  120/  4/  4   N/A
WESTERN LI SOUND 1800            73     160/  4/  4   N/A           0
CENTRAL LI SOUND 1700            71 73  230/  6/  8   N/A           1
EASTERN LI SOUND 1700            71 68  200/  6/  8   N/A
ROBBINS REEF     1800            72     160/ 11/ 12   N/A
$$


>>>>>>>>>>>>>>>>>>>>>>>>>>>> KEY <<<<<<<<<<<<<<<<<<<<<<<<<<<
>                                                          <
>     SKY/WX - SKY CONDITION/PRESENT WEATHER               <
>     TMP    - TEMPERATURE IN FAHRENHEIT                   <
>     DP     - DEWPOINT IN FAHRENHEIT                      <
>     RH     - RELATIVE HUMIDITY IN PERCENT                <
>     WIND   - DIRECTION AND SPEED IN MPH                  <
>     PRES   - MEAN SEA LEVEL PRESSURE IN INCHES OF HG     <
>     WCI    - WIND CHILL INDEX                            <
>     VSB    - VISIBILITY IN MILES                         <
>     HX     - HEAT INDEX                                  <
>     TC     - TEMPERATURE IN CELSIUS                      <
>     VRB    - VARIABLE WIND DIRECTION                     <
>                                                          <
>>>>>>>>>>>>>>>>>>>>>>>>>>>> KEY <<<<<<<<<<<<<<<<<<<<<<<<<<<





USA.gov is the U.S. government's official web portal to all federal, state and local government web resources and services.